| time (UTC) | temp F | wind direction | speed knots | gust knots | rain 1hr in | rain 24hr in | rain mn in | humidity % | barometer mb |
| 20260506044601 | 0 | 0.0 | 0.0 | 0.00 | 0.00 | 0.00 | 1010.2 | ||
| 20260506044052 | 0 | 0.0 | 0.0 | 0.00 | 0.00 | 0.00 | 1010.0 | ||
| 20260506043553 | 0 | 0.0 | 0.0 | 0.00 | 0.00 | 0.00 | 1010.1 | ||
| 20260506043103 | 0 | 0.0 | 0.0 | 0.00 | 0.00 | 0.00 | 1010.2 | ||
| 20260506042552 | 0 | 0.0 | 0.0 | 0.00 | 0.00 | 0.00 | 1010.1 | ||
| 20260506042051 | 0 | 0.0 | 0.0 | 0.00 | 0.00 | 0.00 | 1009.9 | ||
| 20260506041558 | 0 | 0.0 | 0.0 | 0.00 | 0.00 | 0.00 | 1009.9 | ||
| 20260506041052 | 0 | 0.0 | 0.0 | 0.00 | 0.00 | 0.00 | 1009.9 | ||
| 20260506040551 | 0 | 0.0 | 0.0 | 0.00 | 0.00 | 0.00 | 1009.7 | ||
| 20260506040059 | 0 | 0.0 | 0.0 | 0.00 | 0.00 | 0.00 | 1009.7 | ||
| 20260506035552 | 0 | 0.0 | 0.0 | 0.00 | 0.00 | 0.00 | 1009.5 | ||
| 20260506035052 | 0 | 0.0 | 0.0 | 0.00 | 0.00 | 0.00 | 1009.5 | ||
| 20260506034604 | 0 | 0.0 | 0.0 | 0.00 | 0.00 | 0.00 | 1009.2 | ||
| 20260506034052 | 0 | 0.0 | 0.0 | 0.00 | 0.00 | 0.00 | 1009.3 | ||
| 20260506033552 | 0 | 0.0 | 0.0 | 0.00 | 0.00 | 0.00 | 1009.3 | ||
| 20260506033109 | 0 | 7.0 | 0.0 | 0.00 | 0.00 | 0.00 | 1009.2 | ||
| 20260506032552 | 63 | 7.0 | 14.8 | 0.00 | 0.00 | 0.00 | 79 | 1009.2 | |
| 20260506032052 | 63 | 295 | 7.8 | 14.8 | 0.00 | 0.00 | 0.00 | 79 | 1009.3 |
| 20260506031559 | 63 | 306 | 7.0 | 14.8 | 0.00 | 0.00 | 0.00 | 79 | 1009.3 |
| 20260506031052 | 64 | 286 | 7.8 | 14.8 | 0.00 | 0.00 | 0.00 | 79 | 1009.2 |
| 20260506030555 | 64 | 314 | 4.3 | 12.2 | 0.00 | 0.00 | 0.00 | 79 | 1008.9 |
| 20260506025553 | 64 | 324 | 7.0 | 13.9 | 0.00 | 0.00 | 0.00 | 78 | 1008.9 |
| 20260506025055 | 65 | 359 | 7.0 | 12.2 | 0.00 | 0.00 | 0.00 | 78 | 1008.8 |
| 20260506024614 | 65 | 321 | 7.0 | 13.0 | 0.00 | 0.00 | 0.00 | 77 | 1008.5 |
| 20260506024052 | 66 | 311 | 6.1 | 13.0 | 0.00 | 0.00 | 0.00 | 77 | 1008.6 |
| 20260506023553 | 66 | 312 | 6.1 | 12.2 | 0.00 | 0.00 | 0.00 | 77 | 1008.4 |
| 20260506023100 | 67 | 315 | 7.8 | 12.2 | 0.00 | 0.00 | 0.00 | 77 | 1008.1 |
| 20260506022552 | 68 | 297 | 7.0 | 11.3 | 0.00 | 0.00 | 0.00 | 76 | 1007.7 |
| 20260506022053 | 68 | 356 | 4.3 | 12.2 | 0.00 | 0.00 | 0.00 | 76 | 1007.5 |
| 20260506021601 | 68 | 332 | 6.1 | 12.2 | 0.00 | 0.00 | 0.00 | 76 | 1007.5 |
| 20260506021055 | 68 | 357 | 6.1 | 12.2 | 0.00 | 0.00 | 0.00 | 76 | 1007.5 |
| 20260506020552 | 69 | 13 | 6.1 | 10.4 | 0.00 | 0.00 | 0.00 | 76 | 1007.4 |
| 20260506020053 | 69 | 23 | 4.3 | 10.4 | 0.00 | 0.00 | 0.00 | 75 | 1007.2 |
| 20260506015554 | 69 | 313 | 4.3 | 10.4 | 0.00 | 0.00 | 0.00 | 75 | 1007.2 |
| 20260506015052 | 69 | 345 | 6.1 | 10.4 | 0.00 | 0.00 | 0.00 | 75 | 1007.1 |
| 20260506014557 | 69 | 287 | 4.3 | 13.9 | 0.00 | 0.00 | 0.00 | 74 | 1007.0 |
| 20260506014056 | 69 | 319 | 7.0 | 13.9 | 0.00 | 0.00 | 0.00 | 74 | 1006.9 |
| 20260506013552 | 70 | 338 | 5.2 | 12.2 | 0.00 | 0.00 | 0.00 | 74 | 1006.6 |
| 20260506013101 | 70 | 318 | 6.1 | 12.2 | 0.00 | 0.00 | 0.00 | 74 | 1006.8 |
| 20260506012552 | 71 | 32 | 6.1 | 11.3 | 0.00 | 0.00 | 0.00 | 73 | 1006.7 |
| 20260506012054 | 71 | 311 | 4.3 | 9.6 | 0.00 | 0.00 | 0.00 | 73 | 1006.6 |
| 20260506011624 | 72 | 304 | 3.5 | 7.0 | 0.00 | 0.00 | 0.00 | 73 | 1006.5 |
| 20260506011053 | 72 | 315 | 3.5 | 7.0 | 0.00 | 0.00 | 0.00 | 73 | 1006.3 |
| 20260506010553 | 72 | 23 | 2.6 | 7.8 | 0.00 | 0.00 | 0.00 | 72 | 1006.3 |
| 20260506010110 | 72 | 352 | 4.3 | 8.7 | 0.00 | 0.00 | 0.00 | 72 | 1006.2 |
| 20260506005551 | 72 | 323 | 3.5 | 11.3 | 0.00 | 0.00 | 0.00 | 72 | 1006.7 |
| 20260506005054 | 72 | 337 | 5.2 | 12.2 | 0.00 | 0.00 | 0.00 | 71 | 1005.8 |
| 20260506004557 | 72 | 328 | 6.1 | 12.2 | 0.00 | 0.00 | 0.00 | 71 | 1005.8 |
| 20260506004054 | 73 | 340 | 5.2 | 10.4 | 0.00 | 0.00 | 0.00 | 71 | 1005.8 |
| 20260506003552 | 73 | 324 | 3.5 | 14.8 | 0.00 | 0.00 | 0.00 | 70 | 1006.0 |
| 20260506003056 | 73 | 331 | 4.3 | 14.8 | 0.00 | 0.00 | 0.00 | 70 | 1005.8 |
| 20260506002551 | 73 | 332 | 7.0 | 14.8 | 0.00 | 0.00 | 0.00 | 70 | 1005.7 |
| 20260506002052 | 73 | 309 | 4.3 | 10.4 | 0.00 | 0.00 | 0.00 | 70 | 1005.5 |
| 20260506001558 | 73 | 337 | 5.2 | 10.4 | 0.00 | 0.00 | 0.00 | 70 | 1005.5 |
| 20260506001051 | 74 | 295 | 4.3 | 16.5 | 0.00 | 0.00 | 0.00 | 69 | 1005.5 |
| 20260506000552 | 74 | 303 | 6.1 | 16.5 | 0.00 | 0.00 | 0.00 | 69 | 1005.4 |
| 20260506000100 | 74 | 314 | 7.8 | 14.8 | 0.00 | 0.00 | 0.00 | 69 | 1005.4 |
| 20260505235552 | 74 | 264 | 8.7 | 14.8 | 0.00 | 0.00 | 0.00 | 69 | 1005.6 |
| 20260505235052 | 75 | 353 | 7.0 | 14.8 | 0.00 | 0.00 | 0.00 | 69 | 1005.4 |
| 20260505234601 | 75 | 1 | 7.8 | 14.8 | 0.00 | 0.00 | 0.00 | 68 | 1005.4 |
| 20260505234053 | 76 | 298 | 7.8 | 13.9 | 0.00 | 0.00 | 0.00 | 67 | 1005.2 |
| 20260505233552 | 77 | 290 | 7.0 | 17.4 | 0.00 | 0.00 | 0.00 | 67 | 1005.2 |
| 20260505233053 | 78 | 360 | 7.8 | 17.4 | 0.00 | 0.00 | 0.00 | 66 | 1005.1 |
| 20260505232552 | 78 | 288 | 6.1 | 13.9 | 0.00 | 0.00 | 0.00 | 65 | 1004.9 |
| 20260505232052 | 79 | 290 | 5.2 | 13.9 | 0.00 | 0.00 | 0.00 | 64 | 1005.0 |
| 20260505231555 | 79 | 306 | 6.1 | 13.9 | 0.00 | 0.00 | 0.00 | 64 | 1005.0 |
| 20260505231052 | 79 | 311 | 7.0 | 15.6 | 0.00 | 0.00 | 0.00 | 64 | 1005.0 |
| 20260505230552 | 80 | 269 | 7.8 | 15.6 | 0.00 | 0.00 | 0.00 | 63 | 1004.9 |
| 20260505230100 | 81 | 311 | 7.8 | 14.8 | 0.00 | 0.00 | 0.00 | 63 | 1004.7 |
| 20260505225552 | 81 | 285 | 7.0 | 13.0 | 0.00 | 0.00 | 0.00 | 63 | 1004.6 |
| 20260505225053 | 82 | 291 | 6.1 | 13.0 | 0.00 | 0.00 | 0.00 | 62 | 1004.3 |
| 20260505224556 | 83 | 293 | 6.1 | 13.0 | 0.00 | 0.00 | 0.00 | 60 | 1004.2 |
| 20260505224052 | 84 | 338 | 6.1 | 12.2 | 0.00 | 0.00 | 0.00 | 57 | 1004.4 |
| 20260505223552 | 85 | 271 | 4.3 | 12.2 | 0.00 | 0.00 | 0.00 | 55 | 1004.3 |
| 20260505223055 | 85 | 316 | 5.2 | 12.2 | 0.00 | 0.00 | 0.00 | 53 | 1004.1 |
| 20260505222553 | 86 | 277 | 7.0 | 12.2 | 0.00 | 0.00 | 0.00 | 51 | 1003.9 |
| 20260505222056 | 87 | 335 | 4.3 | 10.4 | 0.00 | 0.00 | 0.00 | 51 | 1003.9 |
| 20260505221604 | 86 | 311 | 6.1 | 12.2 | 0.00 | 0.00 | 0.00 | 50 | 1003.9 |
| 20260505221052 | 87 | 287 | 5.2 | 12.2 | 0.00 | 0.00 | 0.00 | 49 | 1003.8 |
| 20260505220552 | 87 | 289 | 5.2 | 10.4 | 0.00 | 0.00 | 0.00 | 49 | 1003.7 |
| 20260505220104 | 87 | 291 | 5.2 | 10.4 | 0.00 | 0.00 | 0.00 | 48 | 1003.6 |
| 20260505215551 | 88 | 6 | 5.2 | 13.0 | 0.00 | 0.00 | 0.00 | 49 | 1003.6 |
| 20260505215053 | 88 | 323 | 6.1 | 13.0 | 0.00 | 0.00 | 0.00 | 49 | 1003.6 |
| 20260505214555 | 89 | 271 | 5.2 | 9.6 | 0.00 | 0.00 | 0.00 | 50 | 1003.8 |
| 20260505214052 | 89 | 257 | 6.1 | 8.7 | 0.00 | 0.00 | 0.00 | 54 | 1003.7 |
| 20260505213552 | 0 | 0.0 | 0.0 | 0.00 | 0.00 | 0.00 | 1003.7 | ||
| 20260505213055 | 0 | 0.0 | 0.0 | 0.00 | 0.00 | 0.00 | 1003.6 | ||
| 20260505212552 | 0 | 0.0 | 0.0 | 0.00 | 0.00 | 0.00 | 1003.7 | ||
| 20260505212053 | 0 | 0.0 | 0.0 | 0.00 | 0.00 | 0.00 | 1003.7 | ||
| 20260505211553 | 0 | 0.0 | 0.0 | 0.00 | 0.00 | 0.00 | 1003.8 | ||
| 20260505211053 | 0 | 0.0 | 0.0 | 0.00 | 0.00 | 0.00 | 1004.0 | ||
| 20260505210552 | 0 | 0.0 | 0.0 | 0.00 | 0.00 | 0.00 | 1004.1 | ||
| 20260505210054 | 0 | 0.0 | 0.0 | 0.00 | 0.00 | 0.00 | 1004.1 | ||
| 20260505205553 | 0 | 0.0 | 0.0 | 0.00 | 0.00 | 0.00 | 1004.2 | ||
| 20260505205053 | 0 | 0.0 | 0.0 | 0.00 | 0.00 | 0.00 | 1004.1 | ||
| 20260505204603 | 0 | 0.0 | 0.0 | 0.00 | 0.00 | 0.00 | 1004.0 | ||
| 20260505204052 | 0 | 0.0 | 0.0 | 0.00 | 0.00 | 0.00 | 1004.3 | ||
| 20260505203556 | 87 | 6.1 | 13.0 | 0.00 | 0.00 | 0.00 | 59 | 1004.3 | |
| 20260505203107 | 87 | 216 | 4.3 | 13.0 | 0.00 | 0.00 | 0.00 | 59 | 1004.3 |
| 20260505202552 | 87 | 193 | 7.0 | 13.0 | 0.00 | 0.00 | 0.00 | 59 | 1004.6 |
| 20260505202052 | 87 | 220 | 7.0 | 13.0 | 0.00 | 0.00 | 0.00 | 59 | 1004.6 |
| 20260505201604 | 88 | 265 | 5.2 | 0.0 | 0.00 | 0.00 | 0.00 | 60 | 1004.6 |
| 20260505201052 | 0 | 0.0 | 0.0 | 0.00 | 0.00 | 0.00 | 1004.4 | ||
| 20260505200554 | 0 | 0.0 | 0.0 | 0.00 | 0.00 | 0.00 | 1004.5 | ||
| 20260505200058 | 0 | 0.0 | 0.0 | 0.00 | 0.00 | 0.00 | 1004.5 | ||
| 20260505195552 | 0 | 0.0 | 0.0 | 0.00 | 0.00 | 0.00 | 1004.6 | ||
| 20260505195051 | 0 | 0.0 | 0.0 | 0.00 | 0.00 | 0.00 | 1004.7 | ||
| 20260505194603 | 0 | 0.0 | 0.0 | 0.00 | 0.00 | 0.00 | 1004.7 | ||
| 20260505194052 | 0 | 0.0 | 0.0 | 0.00 | 0.00 | 0.00 | 1004.8 | ||
| 20260505193551 | 0 | 0.0 | 0.0 | 0.00 | 0.00 | 0.00 | 1004.7 | ||
| 20260505193059 | 0 | 0.0 | 0.0 | 0.00 | 0.00 | 0.00 | 1004.8 | ||
| 20260505192553 | 0 | 0.0 | 0.0 | 0.00 | 0.00 | 0.00 | 1004.5 | ||
| 20260505192052 | 0 | 0.0 | 0.0 | 0.00 | 0.00 | 0.00 | 1004.7 | ||
| 20260505191556 | 0 | 0.0 | 0.0 | 0.00 | 0.00 | 0.00 | 1004.7 | ||
| 20260505191052 | 0 | 0.0 | 0.0 | 0.00 | 0.00 | 0.00 | 1004.7 | ||
| 20260505190554 | 83 | 9.6 | 13.0 | 0.00 | 0.00 | 0.00 | 65 | 1004.7 | |
| 20260505190054 | 83 | 8.7 | 14.8 | 0.00 | 0.00 | 0.00 | 65 | 1004.7 | |
| 20260505185552 | 83 | 195 | 8.7 | 14.8 | 0.00 | 0.00 | 0.00 | 65 | 1004.7 |
| 20260505185052 | 83 | 179 | 7.8 | 14.8 | 0.00 | 0.00 | 0.00 | 65 | 1004.7 |
| 20260505184556 | 83 | 207 | 8.7 | 13.0 | 0.00 | 0.00 | 0.00 | 65 | 1004.8 |
| 20260505184052 | 84 | 165 | 7.0 | 14.8 | 0.00 | 0.00 | 0.00 | 65 | 1004.8 |
| 20260505183554 | 84 | 210 | 7.0 | 14.8 | 0.00 | 0.00 | 0.00 | 64 | 1004.8 |
| 20260505183058 | 83 | 189 | 7.8 | 12.2 | 0.00 | 0.00 | 0.00 | 65 | 1004.8 |
| 20260505182551 | 0 | 0.0 | 0.0 | 0.00 | 0.00 | 0.00 | 1004.8 | ||
| 20260505182052 | 0 | 0.0 | 0.0 | 0.00 | 0.00 | 0.00 | 1004.8 | ||
| 20260505181600 | 0 | 0.0 | 0.0 | 0.00 | 0.00 | 0.00 | 1004.9 | ||
| 20260505181052 | 0 | 0.0 | 0.0 | 0.00 | 0.00 | 0.00 | 1004.8 | ||
| 20260505180552 | 0 | 0.0 | 0.0 | 0.00 | 0.00 | 0.00 | 1004.8 | ||
| 20260505180055 | 0 | 0.0 | 0.0 | 0.00 | 0.00 | 0.00 | 1004.7 | ||
| 20260505175553 | 0 | 0.0 | 0.0 | 0.00 | 0.00 | 0.00 | 1004.9 | ||
| 20260505175052 | 0 | 0.0 | 0.0 | 0.00 | 0.00 | 0.00 | 1004.7 | ||
| 20260505174556 | 0 | 0.0 | 0.0 | 0.00 | 0.00 | 0.00 | 1004.8 | ||
| 20260505174052 | 0 | 0.0 | 0.0 | 0.00 | 0.00 | 0.00 | 1004.7 | ||
| 20260505173551 | 0 | 0.0 | 0.0 | 0.00 | 0.00 | 0.00 | 1004.9 | ||
| 20260505173055 | 0 | 0.0 | 0.0 | 0.00 | 0.00 | 0.00 | 1004.8 | ||
| 20260505172614 | 0 | 0.0 | 0.0 | 0.00 | 0.00 | 0.00 | 1004.8 | ||
| 20260505172051 | 0 | 0.0 | 0.0 | 0.00 | 0.00 | 0.00 | 1004.8 | ||
| 20260505171556 | 80 | 6.1 | 10.4 | 0.00 | 0.00 | 0.00 | 73 | 1004.8 | |
| 20260505171052 | 80 | 168 | 4.3 | 14.8 | 0.00 | 0.00 | 0.00 | 73 | 1004.8 |
| 20260505170552 | 80 | 202 | 8.7 | 17.4 | 0.00 | 0.00 | 0.00 | 73 | 1004.8 |
| 20260505170056 | 80 | 158 | 8.7 | 17.4 | 0.00 | 0.00 | 0.00 | 72 | 1004.9 |
| 20260505165551 | 80 | 142 | 7.8 | 15.6 | 0.00 | 0.00 | 0.00 | 73 | 1005.0 |
| 20260505165053 | 80 | 180 | 8.7 | 15.6 | 0.00 | 0.00 | 0.00 | 73 | 1005.0 |
| 20260505164602 | 80 | 133 | 7.8 | 13.0 | 0.00 | 0.00 | 0.00 | 73 | 1004.9 |
| 20260505164052 | 79 | 201 | 7.0 | 14.8 | 0.00 | 0.00 | 0.00 | 73 | 1004.9 |
| 20260505163552 | 79 | 216 | 7.8 | 14.8 | 0.00 | 0.00 | 0.00 | 75 | 1004.8 |
| 20260505163053 | 79 | 197 | 7.0 | 8.7 | 0.00 | 0.00 | 0.00 | 74 | 1004.8 |
| 20260505162551 | 0 | 0.0 | 0.0 | 0.00 | 0.00 | 0.00 | 1004.9 | ||
| 20260505162051 | 0 | 0.0 | 0.0 | 0.00 | 0.00 | 0.00 | 1004.8 | ||
| 20260505161557 | 0 | 0.0 | 0.0 | 0.00 | 0.00 | 0.00 | 1004.7 | ||
| 20260505161052 | 0 | 0.0 | 0.0 | 0.00 | 0.00 | 0.00 | 1004.6 | ||
| 20260505160554 | 0 | 0.0 | 0.0 | 0.00 | 0.00 | 0.00 | 1004.7 | ||
| 20260505153107 | 0 | 0.0 | 0.0 | 0.00 | 0.00 | 0.00 | 1004.4 | ||
| 20260505152554 | 0 | 0.0 | 0.0 | 0.00 | 0.00 | 0.00 | 1004.4 | ||
| 20260505152051 | 0 | 9.6 | 0.0 | 0.00 | 0.00 | 0.00 | 1004.4 | ||
| 20260505151556 | 76 | 8.7 | 17.4 | 0.00 | 0.00 | 0.00 | 79 | 1004.5 | |
| 20260505151051 | 76 | 190 | 9.6 | 17.4 | 0.00 | 0.00 | 0.00 | 79 | 1004.5 |
| 20260505150551 | 76 | 200 | 7.8 | 16.5 | 0.00 | 0.00 | 0.00 | 79 | 1004.7 |
| 20260505140552 | 73 | 240 | 9.6 | 20.0 | 0.00 | 0.00 | 0.00 | 83 | 1004.5 |
| 20260505124608 | 71 | 133 | 6.1 | 13.9 | 0.00 | 0.00 | 0.00 | 86 | 1004.1 |
| 20260505124052 | 71 | 116 | 5.2 | 10.4 | 0.00 | 0.00 | 0.00 | 86 | 1004.2 |
| 20260505123555 | 71 | 141 | 5.2 | 9.6 | 0.00 | 0.00 | 0.00 | 86 | 1004.1 |
| 20260505123100 | 0 | 0.0 | 0.0 | 0.00 | 0.00 | 0.00 | 1004.2 | ||
| 20260505122554 | 0 | 0.0 | 0.0 | 0.00 | 0.00 | 0.00 | 1003.9 | ||
| 20260505122052 | 0 | 0.0 | 0.0 | 0.00 | 0.00 | 0.00 | 1003.8 | ||
| 20260505121556 | 0 | 0.0 | 0.0 | 0.00 | 0.00 | 0.00 | 1003.7 | ||
| 20260505121052 | 0 | 0.0 | 0.0 | 0.00 | 0.00 | 0.00 | 1003.7 | ||
| 20260505120552 | 0 | 0.0 | 0.0 | 0.00 | 0.00 | 0.00 | 1003.7 | ||
| 20260505120105 | 0 | 0.0 | 0.0 | 0.00 | 0.00 | 0.00 | 1003.8 | ||
| 20260505115551 | 0 | 0.0 | 0.0 | 0.00 | 0.00 | 0.00 | 1003.6 | ||
| 20260505115051 | 0 | 0.0 | 0.0 | 0.00 | 0.00 | 0.00 | 1003.6 | ||
| 20260505114557 | 0 | 0.0 | 0.0 | 0.00 | 0.00 | 0.00 | 1003.5 | ||
| 20260505114053 | 0 | 0.0 | 0.0 | 0.00 | 0.00 | 0.00 | 1003.5 | ||
| 20260505113552 | 0 | 0.0 | 0.0 | 0.00 | 0.00 | 0.00 | 1003.6 | ||
| 20260505113113 | 0 | 0.0 | 0.0 | 0.00 | 0.00 | 0.00 | 1003.6 | ||
| 20260505112555 | 0 | 0.0 | 0.0 | 0.00 | 0.00 | 0.00 | 1003.6 | ||
| 20260505112052 | 0 | 0.0 | 0.0 | 0.00 | 0.00 | 0.00 | 1003.6 | ||
| 20260505111552 | 0 | 0.0 | 0.0 | 0.00 | 0.00 | 0.00 | 1003.6 | ||
| 20260505111055 | 0 | 0.0 | 0.0 | 0.00 | 0.00 | 0.00 | 1003.4 | ||
| 20260505110552 | 0 | 0.0 | 0.0 | 0.00 | 0.00 | 0.00 | 1003.4 | ||
| 20260505102052 | 0 | 0.0 | 0.0 | 0.00 | 0.00 | 0.00 | 1003.5 | ||
| 20260505101557 | 0 | 0.0 | 0.0 | 0.00 | 0.00 | 0.00 | 1003.4 | ||
| 20260505101053 | 0 | 0.0 | 0.0 | 0.00 | 0.00 | 0.00 | 1003.5 | ||
| 20260505100552 | 0 | 0.0 | 0.0 | 0.00 | 0.00 | 0.00 | 1003.6 | ||
| 20260505100054 | 0 | 0.0 | 0.0 | 0.00 | 0.00 | 0.00 | 1003.5 | ||
| 20260505095552 | 0 | 0.0 | 0.0 | 0.00 | 0.00 | 0.00 | 1003.6 | ||
| 20260505095051 | 0 | 0.0 | 0.0 | 0.00 | 0.00 | 0.00 | 1003.5 | ||
| 20260505094554 | 0 | 0.0 | 0.0 | 0.00 | 0.00 | 0.00 | 1003.5 | ||
| 20260505094051 | 0 | 0.0 | 0.0 | 0.00 | 0.00 | 0.00 | 1003.5 | ||
| 20260505093551 | 0 | 0.0 | 0.0 | 0.00 | 0.00 | 0.00 | 1003.7 | ||
| 20260505093104 | 0 | 0.0 | 0.0 | 0.00 | 0.00 | 0.00 | 1003.9 | ||
| 20260505092550 | 0 | 0.0 | 0.0 | 0.00 | 0.00 | 0.00 | 1003.8 | ||
| 20260505092054 | 0 | 0.0 | 0.0 | 0.00 | 0.00 | 0.00 | 1003.8 | ||
| 20260505091555 | 0 | 0.0 | 0.0 | 0.00 | 0.00 | 0.00 | 1004.0 | ||
| 20260505091051 | 0 | 0.0 | 0.0 | 0.00 | 0.00 | 0.00 | 1003.9 | ||
| 20260505090551 | 0 | 0.0 | 0.0 | 0.00 | 0.00 | 0.00 | 1004.1 | ||
| 20260505090053 | 0 | 0.0 | 0.0 | 0.00 | 0.00 | 0.00 | 1004.2 | ||
| 20260505085552 | 0 | 0.0 | 0.0 | 0.00 | 0.00 | 0.00 | 1004.0 | ||
| 20260505085054 | 0 | 0.0 | 0.0 | 0.00 | 0.00 | 0.00 | 1004.0 | ||
| 20260505084556 | 0 | 0.0 | 0.0 | 0.00 | 0.00 | 0.00 | 1003.9 | ||
| 20260505084054 | 0 | 0.0 | 0.0 | 0.00 | 0.00 | 0.00 | 1004.0 | ||
| 20260505083553 | 0 | 0.0 | 0.0 | 0.00 | 0.00 | 0.00 | 1004.0 | ||
| 20260505083100 | 0 | 0.0 | 0.0 | 0.00 | 0.00 | 0.00 | 1003.9 | ||
| 20260505082552 | 0 | 0.0 | 0.0 | 0.00 | 0.00 | 0.00 | 1004.0 | ||
| 20260505082052 | 0 | 0.0 | 0.0 | 0.00 | 0.00 | 0.00 | 1004.1 | ||
| 20260505081557 | 0 | 0.0 | 0.0 | 0.00 | 0.00 | 0.00 | 1004.1 | ||
| 20260505081052 | 0 | 0.0 | 0.0 | 0.00 | 0.00 | 0.00 | 1003.9 | ||
| 20260505080551 | 0 | 0.0 | 0.0 | 0.00 | 0.00 | 0.00 | 1004.2 | ||
| 20260505080108 | 0 | 0.0 | 0.0 | 0.00 | 0.00 | 0.00 | 1004.2 | ||
| 20260505075551 | 0 | 0.0 | 0.0 | 0.00 | 0.00 | 0.00 | 1004.2 | ||
| 20260505075051 | 0 | 0.0 | 0.0 | 0.00 | 0.00 | 0.00 | 1004.2 | ||
| 20260505074554 | 0 | 0.0 | 0.0 | 0.00 | 0.00 | 0.00 | 1004.2 | ||
| 20260505074054 | 0 | 0.0 | 0.0 | 0.00 | 0.00 | 0.00 | 1004.4 | ||
| 20260505073551 | 0 | 0.0 | 0.0 | 0.00 | 0.00 | 0.00 | 1004.4 | ||
| 20260505073100 | 0 | 0.0 | 0.0 | 0.00 | 0.00 | 0.00 | 1004.6 | ||
| 20260505072553 | 0 | 0.0 | 0.0 | 0.00 | 0.00 | 0.00 | 1004.7 | ||
| 20260505072052 | 0 | 0.0 | 0.0 | 0.00 | 0.00 | 0.00 | 1004.7 | ||
| 20260505071554 | 0 | 0.0 | 0.0 | 0.00 | 0.00 | 0.00 | 1004.8 | ||
| 20260505071053 | 0 | 0.0 | 0.0 | 0.00 | 0.00 | 0.00 | 1004.9 | ||
| 20260505070554 | 0 | 0.0 | 0.0 | 0.00 | 0.00 | 0.00 | 1004.9 | ||
| 20260505070055 | 0 | 0.0 | 0.0 | 0.00 | 0.00 | 0.00 | 1005.0 | ||
| 20260505065552 | 0 | 0.0 | 0.0 | 0.00 | 0.00 | 0.00 | 1005.0 | ||
| 20260505065051 | 0 | 0.0 | 0.0 | 0.00 | 0.00 | 0.00 | 1005.0 | ||
| 20260505064601 | 0 | 0.0 | 0.0 | 0.00 | 0.00 | 0.00 | 1005.2 | ||
| 20260505064051 | 0 | 0.0 | 0.0 | 0.00 | 0.00 | 0.00 | 1005.3 | ||
| 20260505063554 | 0 | 0.0 | 0.0 | 0.00 | 0.00 | 0.00 | 1005.3 | ||
| 20260505063102 | 0 | 0.0 | 0.0 | 0.00 | 0.00 | 0.00 | 1005.3 | ||
| 20260505062553 | 0 | 0.0 | 0.0 | 0.00 | 0.00 | 0.00 | 1005.3 | ||
| 20260505062052 | 0 | 0.0 | 0.0 | 0.00 | 0.00 | 0.00 | 1005.3 | ||
| 20260505061600 | 0 | 0.0 | 0.0 | 0.00 | 0.00 | 0.00 | 1005.3 | ||
| 20260505061057 | 0 | 0.0 | 0.0 | 0.00 | 0.00 | 0.00 | 1005.4 | ||
| 20260505060552 | 0 | 0.0 | 0.0 | 0.00 | 0.00 | 0.00 | 1005.4 | ||
| 20260505060100 | 0 | 0.0 | 0.0 | 0.00 | 0.00 | 0.00 | 1005.3 | ||
| 20260505055556 | 0 | 0.0 | 0.0 | 0.00 | 0.00 | 0.00 | 1005.3 | ||
| 20260505055055 | 0 | 0.0 | 0.0 | 0.00 | 0.00 | 0.00 | 1005.2 | ||
| 20260505054556 | 0 | 0.0 | 0.0 | 0.00 | 0.00 | 0.00 | 1005.4 | ||
| 20260505054055 | 0 | 0.0 | 0.0 | 0.00 | 0.00 | 0.00 | 1005.3 | ||
| 20260505053551 | 0 | 0.0 | 0.0 | 0.00 | 0.00 | 0.00 | 1005.3 | ||
| 20260505053114 | 0 | 0.0 | 0.0 | 0.00 | 0.00 | 0.00 | 1005.4 | ||
| 20260505052551 | 0 | 0.0 | 0.0 | 0.00 | 0.00 | 0.00 | 1005.4 | ||
| 20260505052052 | 0 | 0.0 | 0.0 | 0.00 | 0.00 | 0.00 | 1005.6 | ||
| 20260505051555 | 0 | 0.0 | 0.0 | 0.00 | 0.00 | 0.00 | 1005.5 | ||
| 20260505051053 | 0 | 0.0 | 0.0 | 0.00 | 0.00 | 0.00 | 1005.7 | ||
| 20260505050552 | 0 | 0.0 | 0.0 | 0.00 | 0.00 | 0.00 | 1005.6 | ||
| 20260505050104 | 0 | 0.0 | 0.0 | 0.00 | 0.00 | 0.00 | 1005.6 |